QPF
0.00 0.00 0.00 0.00 0.00 0.00 0.00 0.00 0.00 0.00 0.00 0.00 0.00 0.00 0.00 0.00 0.00 0.00 0.00 0.00 0.00 0.00 0.00 0.00 0.00 0.00 0.00 0.00 0.00 0.00 0.00 0.00 0.00 0.00 0.00 0.00 0.00 0.00 0.00 0.00 0.00 0.00 0.00 0.00
0.00 0.00 0.00 0.00 0.00 0.00 0.00 0.00 0.00 0.00 0.00 0.00 0.00 0.00 0.00 0.00 0.00 0.00 0.00 0.00 0.00 0.00 0.00 0.00 0.00 0.00 0.00 0.00 0.00 0.00 0.00 0.00 0.00 0.00 0.00 0.00 0.00 0.00 0.00 0.00 0.00 0.00 0.00 0.00
0.00 0.00 0.00 0.00 0.00 0.00 0.00 0.00 0.00 0.00 0.00 0.00 0.00 0.00 0.00 0.00 0.00 0.00 0.00 0.00 0.00 0.00 0.00 0.00 0.00 0.00 0.00 0.00 0.00 0.00 0.00 0.00 0.00 0.00 0.00 0.00 0.00 0.00 0.00 0.00 0.00 0.00 0.00 0.00
0.00 0.00 0.00 0.00 0.00 0.00 0.00 0.00 0.00 0.00 0.00 0.00 0.00 0.00 0.00 0.00 0.00 0.00 0.00 0.00 0.00 0.00 0.00 0.00 0.00 0.00 0.00 0.00 0.00 0.00 0.00 0.00 0.00 0.00 0.00 0.00 0.00 0.00 0.00 0.00 0.00 0.00 0.00 0.00
0.00 0.00 0.00 0.00 0.00 0.00 0.00 0.00 0.00 0.00 0.00 0.00 0.00 0.00 0.00 0.00 0.00 0.00 0.00 0.00 0.00 0.00 0.00 0.00 0.00 0.00 0.00 0.00 0.00 0.00 0.00 0.00 0.00 0.00 0.00 0.00 0.00 0.00 0.00 0.00 0.00 0.00 0.00 0.00
0.00 0.00 0.00 0.00 0.00 0.00 0.00 0.00 0.00 0.00 0.00 0.00 0.00 0.00 0.00 0.00 0.00 0.00 0.00 0.00 0.00 0.00 0.00 0.00 0.00 0.00 0.00 0.00 0.00 0.00 0.00 0.00 0.00 0.00 0.00 0.00 0.00 0.00 0.00 0.00 0.00 0.00 0.00 0.00
0.00 0.00 0.00 0.00 0.00 0.00 0.00 0.00 0.00 0.00 0.00 0.00 0.00 0.00 0.00 0.00 0.00 0.00 0.00 0.00 0.00 0.00 0.00 0.00 0.00 0.00 0.00 0.00 0.00 0.00 0.00 0.00 0.00 0.00 0.00 0.00 0.00 0.00 0.00 0.00 0.00 0.00 0.00 0.00
0.00 0.00 0.00 0.00 0.00 0.00 0.00 0.00 0.00 0.00 0.00 0.00 0.00 0.00 0.00 0.00 0.00 0.00 0.00 0.00 0.00 0.00 0.00 0.00 0.00 0.00 0.00 0.00 0.00 0.00 0.00 0.00 0.00 0.00 0.00 0.00 0.00 0.00 0.00 0.00 0.00 0.00 0.00 0.00
0.00 0.00 0.00 0.00 0.00 0.00 0.00 0.00 0.00 0.00 0.00 0.00 0.00 0.00 0.00 0.00 0.00 0.00 0.00 0.00 0.00 0.00 0.00 0.00 0.00 0.00 0.00 0.00 0.00 0.00 0.00 0.00 0.00 0.00 0.00 0.00 0.00 0.00 0.00 0.00 0.00 0.00 0.00 0.00
0.00 0.00 0.00 0.00 0.00 0.00 0.00 0.00 0.00 0.00 0.00 0.00 0.00 0.00 0.00 0.00 0.00 0.00 0.00 0.00 0.00 0.00 0.00 0.00 0.00 0.00 0.00 0.00 0.00 0.00 0.00 0.00 0.00 0.00 0.00 0.00 0.00 0.00 0.00 0.00 0.00 0.00 0.00 0.00
0.00 0.00 0.00 0.00 0.00 0.00 0.00 0.00 0.00 0.00 0.00 0.00 0.00 0.00 0.00 0.00 0.00 0.00 0.00 0.00 0.00 0.00 0.00 0.00 0.00 0.00 0.00 0.00 0.00 0.00 0.00 0.00 0.00 0.00 0.00 0.00 0.00 0.00 0.00 0.00 0.00 0.00 0.00 0.00
0.00 0.00 0.00 0.00 0.00 0.00 0.00 0.00 0.00 0.00 0.00 0.00 0.00 0.00 0.00 0.00 0.00 0.00 0.00 0.00 0.00 0.00 0.00 0.00 0.00 0.00 0.00 0.00 0.00 0.00 0.00 0.00 0.00 0.00 0.00 0.00 0.00 0.00 0.00 0.00 0.00 0.00 0.00 0.00
0.00 0.00 0.00 0.00 0.00 0.00 0.00 0.00 0.00 0.00 0.00 0.00 0.00 0.00 0.00 0.00 0.00 0.00 0.00 0.00 0.00 0.00 0.00 0.00 0.00 0.00 0.00 0.00 0.00 0.00 0.00 0.00 0.00 0.00 0.00 0.00 0.00 0.00 0.00 0.00 0.00 0.00 0.00 0.00
0.00 0.00 0.00 0.00 0.00 0.00 0.00 0.00 0.00 0.00 0.00 0.00 0.00 0.00 0.00 0.00 0.00 0.00 0.00 0.00 0.00 0.00 0.00 0.00 0.00 0.00 0.00 0.00 0.00 0.00 0.00 0.00 0.00 0.00 0.00 0.00 0.00 0.00 0.00 0.00 0.00 0.00 0.00 0.00
0.00 0.00 0.00 0.00 0.00 0.00 0.00 0.00 0.00 0.00 0.00 0.00 0.00 0.00 0.00 0.00 0.00 0.00 0.00 0.00 0.00 0.00 0.00 0.00 0.00 0.00 0.00 0.00 0.00 0.00 0.00 0.00 0.00 0.00 0.00 0.00 0.00 0.00 0.00 0.00 0.00 0.00 0.00 0.00
0.00 0.00 0.00 0.00 0.00 0.00 0.00 0.00 0.00 0.00 0.00 0.00 0.00 0.00 0.00 0.00 0.00 0.00 0.00 0.00 0.00 0.00 0.00 0.00 0.00 0.00 0.00 0.00 0.00 0.00 0.00 0.00 0.00 0.00 0.00 0.00 0.00 0.00 0.00 0.00 0.00 0.00 0.00 0.00
0.00 0.00 0.00 0.00 0.00 0.00 0.00 0.00 0.00 0.00 0.00 0.00 0.00 0.00 0.00 0.00 0.00 0.00 0.00 0.00 0.00 0.00 0.00 0.00 0.00 0.00 0.00 0.00 0.00 0.00 0.00 0.00 0.00 0.00 0.00 0.00 0.00 0.00 0.00 0.00 0.00 0.00 0.00 0.00
0.00 0.00 0.00 0.00 0.00 0.00 0.00 0.00 0.00 0.00 0.00 0.00 0.00 0.00 0.00 0.00 0.00 0.00 0.00 0.00 0.00 0.00 0.00 0.00 0.00 0.00 0.00 0.00 0.00 0.00 0.00 0.00 0.00 0.00 0.00 0.00 0.00 0.00 0.00 0.00 0.00 0.00 0.00 0.00
0.00 0.00 0.00 0.00 0.00 0.00 0.00 0.00 0.00 0.00 0.00 0.00 0.00 0.00 0.00 0.00 0.00 0.00 0.00 0.00 0.00 0.00 0.00 0.00 0.00 0.00 0.00 0.00 0.00 0.00 0.00 0.00 0.00 0.00 0.00 0.00 0.00 0.00 0.00 0.00 0.00 0.00 0.00 0.00
0.00 0.00 0.00 0.00 0.00 0.00 0.00 0.00 0.00 0.00 0.00 0.00 0.00 0.00 0.00 0.00 0.00 0.00 0.00 0.00 0.00 0.00 0.00 0.00 0.00 0.00 0.00 0.00 0.00 0.00 0.00 0.00 0.00 0.00 0.00 0.00 0.00 0.00 0.00 0.00 0.00 0.00 0.00 0.00
0.00 0.00 0.00 0.00 0.00 0.00 0.00 0.00 0.00 0.00 0.00 0.00 0.00 0.00 0.00 0.00 0.00 0.00 0.00 0.00 0.00 0.00 0.00 0.00 0.00 0.00 0.00 0.00 0.00 0.00 0.00 0.00 0.00 0.00 0.00 0.00 0.00 0.00 0.00 0.00 0.00 0.00 0.00 0.00
0.00 0.00 0.00 0.00 0.00 0.00 0.00 0.00 0.00 0.00 0.00 0.00 0.00 0.00 0.00 0.00 0.00 0.00 0.00 0.00 0.00 0.00 0.00 0.00 0.00 0.00 0.00 0.00 0.00 0.00 0.00 0.00 0.00 0.00 0.00 0.00 0.00 0.00 0.00 0.00 0.00 0.00 0.00 0.00
0.00 0.00 0.00 0.00 0.00 0.00 0.00 0.00 0.00 0.00 0.00 0.00 0.00 0.00 0.00 0.00 0.00 0.00 0.00 0.00 0.00 0.00 0.00 0.00 0.00 0.00 0.00 0.00 0.00 0.00 0.00 0.00 0.00 0.00 0.00 0.00 0.00 0.00 0.00 0.00 0.00 0.00 0.00 0.00
0.00 0.00 0.00 0.00 0.00 0.00 0.00 0.00 0.00 0.00 0.00 0.00 0.00 0.00 0.00 0.00 0.00 0.00 0.00 0.00 0.00 0.00 0.00 0.00 0.00 0.00 0.00 0.00 0.00 0.00 0.00 0.00 0.00 0.00 0.00 0.00 0.00 0.00 0.00 0.00 0.00 0.00 0.00 0.00
0.00 0.00 0.00 0.00 0.00 0.00 0.00 0.00 0.00 0.00 0.00 0.00 0.00 0.00 0.00 0.00 0.00 0.00 0.00 0.00 0.00 0.00 0.00 0.00 0.00 0.00 0.00 0.00 0.00 0.00 0.00 0.00 0.00 0.00 0.00 0.00 0.00 0.00 0.00 0.00 0.00 0.00 0.00 0.00
0.00 0.00 0.00 0.00 0.00 0.00 0.00 0.00 0.00 0.00 0.00 0.00 0.00 0.00 0.00 0.00 0.00 0.00 0.00 0.00 0.00 0.00 0.00 0.00 0.00 0.00 0.00 0.00 0.00 0.00 0.00 0.00 0.00 0.00 0.00 0.00 0.00 0.00 0.00 0.00 0.00 0.00 0.00 0.00
0.00 0.00 0.00 0.00 0.00 0.00 0.00 0.00 0.00 0.00 0.00 0.00 0.00 0.00 0.00 0.00 0.00 0.00 0.00 0.00 0.00 0.00 0.00 0.00 0.00 0.00 0.00 0.00 0.00 0.00 0.00 0.00 0.00 0.00 0.00 0.00 0.00 0.00 0.00 0.00 0.00 0.00 0.00 0.00
MSLP
1020.02 1019.65 1019.11 1018.96 1019.19 1019.75 1020.44 1020.90 1021.58 1021.08 1021.07 1020.72 1020.96 1021.51 1021.98 1022.62 1023.25 1023.53 1023.61 1023.63 1023.64 1023.66 1023.77 1023.79 1023.94 1024.16 1024.21 1024.10 1023.94 1023.79 1023.76 1023.76 1023.82 1023.77 1023.65 1023.47 1023.16 1022.85 1022.79 1022.86 1022.74 1022.40 1022.27 1022.29
1021.49 1020.99 1020.48 1019.87 1019.47 1019.66 1019.93 1020.23 1020.48 1020.65 1020.81 1020.57 1021.05 1021.80 1022.43 1022.79 1023.19 1023.42 1023.42 1023.42 1023.49 1023.47 1023.64 1023.87 1024.13 1024.21 1024.11 1023.97 1023.84 1023.76 1023.78 1023.86 1023.85 1023.81 1023.70 1023.37 1023.06 1022.71 1022.58 1022.47 1022.44 1022.26 1022.33 1022.41
1023.27 1022.60 1021.55 1020.55 1018.93 1018.97 1018.94 1019.11 1019.53 1020.39 1020.13 1020.77 1021.56 1021.96 1022.49 1022.94 1023.13 1023.26 1023.30 1023.35 1023.46 1023.62 1023.79 1024.01 1024.15 1024.09 1024.06 1023.87 1023.75 1023.73 1023.82 1023.85 1023.85 1023.87 1023.71 1023.34 1022.90 1022.71 1022.61 1022.50 1022.45 1022.48 1022.56 1022.70
1025.04 1023.98 1022.69 1019.40 1018.44 1018.21 1018.47 1018.74 1019.21 1019.79 1020.06 1020.52 1021.19 1021.91 1022.38 1022.69 1022.95 1023.14 1023.18 1023.29 1023.43 1023.60 1023.83 1023.98 1023.99 1023.98 1023.92 1023.73 1023.71 1023.76 1023.88 1024.00 1023.98 1023.76 1023.43 1023.16 1022.95 1022.80 1022.59 1022.41 1022.60 1022.71 1022.79 1023.04
1026.01 1024.98 1022.59 1019.64 1018.39 1018.09 1018.30 1018.70 1019.11 1019.83 1020.62 1021.20 1021.88 1022.38 1022.57 1022.42 1022.55 1022.76 1023.04 1023.20 1023.33 1023.42 1023.68 1023.89 1023.98 1023.91 1023.81 1023.78 1023.77 1023.90 1023.99 1023.94 1023.64 1023.45 1023.32 1023.09 1022.98 1022.75 1022.60 1022.45 1022.64 1022.82 1023.05 1023.35
1026.50 1025.90 1023.08 1019.32 1017.98 1017.65 1018.01 1018.79 1018.72 1019.59 1020.56 1021.35 1022.21 1022.89 1022.23 1021.99 1022.31 1022.58 1022.79 1023.07 1023.29 1023.51 1023.82 1023.95 1023.94 1023.91 1023.98 1024.01 1023.99 1023.93 1023.80 1023.63 1023.47 1023.37 1023.19 1023.01 1022.70 1022.49 1022.38 1022.43 1022.73 1023.04 1023.32 1023.44
1025.95 1024.82 1021.62 1018.77 1018.01 1017.81 1018.69 1018.47 1018.48 1019.23 1020.01 1021.07 1021.66 1021.22 1021.34 1021.72 1022.27 1022.48 1022.87 1023.14 1023.35 1023.62 1023.93 1024.00 1023.88 1023.83 1023.89 1023.89 1023.81 1023.59 1023.50 1023.42 1023.37 1023.24 1023.03 1022.68 1022.41 1022.26 1022.45 1022.75 1023.06 1023.33 1023.46 1023.64
1024.90 1023.82 1020.42 1017.91 1018.22 1018.03 1017.27 1017.57 1018.00 1018.78 1019.27 1019.97 1020.50 1021.04 1021.46 1021.72 1022.07 1022.55 1023.02 1023.42 1023.55 1023.79 1023.87 1023.83 1023.79 1023.78 1023.77 1023.77 1023.49 1023.39 1023.39 1023.39 1023.39 1023.20 1022.95 1022.75 1022.55 1022.62 1022.77 1023.06 1023.35 1023.64 1023.90 1024.04
1021.60 1019.64 1017.99 1017.31 1016.61 1016.39 1016.63 1017.15 1017.97 1018.39 1018.89 1019.54 1020.42 1020.97 1021.48 1022.04 1022.29 1022.77 1023.21 1023.50 1023.66 1023.87 1023.96 1023.89 1023.81 1023.72 1023.78 1023.63 1023.46 1023.37 1023.36 1023.42 1023.39 1023.15 1022.91 1022.85 1022.77 1023.01 1023.17 1023.32 1023.51 1023.69 1023.93 1024.04
1019.87 1017.79 1017.39 1017.13 1016.55 1016.52 1016.77 1017.19 1017.44 1017.92 1018.70 1019.51 1020.35 1020.96 1021.55 1022.41 1022.80 1023.19 1023.49 1023.71 1023.87 1024.08 1024.19 1024.15 1023.90 1023.75 1023.71 1023.53 1023.30 1023.13 1023.20 1023.35 1023.36 1023.13 1022.92 1022.83 1022.83 1023.00 1023.19 1023.34 1023.47 1023.61 1023.73 1023.84
1018.50 1017.49 1017.01 1016.57 1016.35 1016.36 1016.70 1017.03 1017.44 1017.93 1018.44 1019.10 1019.90 1020.93 1021.61 1022.45 1023.00 1023.37 1023.64 1023.88 1024.00 1024.15 1024.23 1024.10 1023.90 1023.90 1023.73 1023.44 1023.22 1023.09 1023.07 1023.06 1023.19 1023.12 1022.98 1022.92 1022.98 1023.04 1023.06 1022.98 1023.04 1023.20 1023.29 1023.42
1016.67 1016.13 1016.11 1016.06 1015.74 1016.11 1016.68 1016.96 1017.33 1017.96 1018.85 1019.57 1020.18 1021.28 1021.78 1022.58 1023.00 1023.37 1023.68 1023.83 1024.00 1024.05 1024.01 1023.90 1023.90 1023.81 1023.57 1023.27 1023.14 1023.00 1022.94 1022.79 1022.75 1022.91 1022.92 1022.89 1023.03 1022.99 1022.83 1022.74 1022.64 1022.61 1022.57 1022.63
1015.46 1015.30 1015.59 1015.66 1015.78 1016.17 1016.65 1017.11 1017.62 1018.34 1019.03 1020.04 1021.36 1022.09 1022.36 1022.86 1023.19 1023.41 1023.70 1023.88 1023.96 1024.00 1023.92 1023.83 1023.72 1023.62 1023.38 1023.06 1022.88 1022.82 1022.59 1022.41 1022.37 1022.50 1022.66 1022.78 1022.87 1022.90 1022.86 1022.53 1022.35 1022.29 1022.14 1022.17
1014.83 1015.43 1015.93 1015.99 1016.01 1016.34 1016.87 1017.57 1018.22 1019.10 1019.89 1021.10 1021.64 1022.17 1022.65 1023.11 1023.45 1023.63 1023.73 1023.86 1023.96 1023.96 1023.90 1023.77 1023.53 1023.24 1022.91 1022.71 1022.45 1022.23 1022.04 1021.94 1022.03 1022.11 1022.25 1022.45 1022.57 1022.49 1022.49 1022.47 1022.82 1022.35 1021.93 1021.91
1014.95 1015.23 1015.39 1015.60 1016.18 1016.79 1017.39 1018.20 1019.22 1020.19 1021.15 1021.73 1022.11 1022.48 1022.90 1023.25 1023.53 1023.67 1023.75 1023.87 1023.96 1023.98 1023.88 1023.60 1023.29 1022.84 1022.44 1022.24 1021.91 1021.61 1021.47 1021.41 1021.48 1021.65 1021.80 1021.94 1022.14 1022.21 1022.17 1022.16 1022.20 1022.21 1022.14 1021.83
1015.46 1015.79 1016.10 1016.49 1017.21 1017.95 1018.58 1019.02 1020.15 1021.29 1022.00 1022.46 1022.59 1022.81 1023.01 1023.23 1023.50 1023.59 1023.71 1023.79 1023.95 1023.83 1023.58 1023.32 1022.94 1022.37 1022.02 1021.72 1021.40 1021.07 1020.91 1020.80 1020.96 1021.19 1021.57 1021.70 1021.77 1021.85 1021.81 1021.83 1021.82 1021.84 1021.90 1022.00
1016.17 1016.81 1017.17 1017.84 1018.30 1018.86 1019.82 1020.81 1021.40 1022.08 1022.49 1022.80 1022.89 1022.91 1023.12 1023.48 1023.69 1023.59 1023.61 1023.64 1023.68 1023.58 1023.13 1022.64 1022.22 1021.73 1021.43 1021.22 1020.95 1020.53 1020.38 1020.30 1020.46 1020.67 1020.96 1021.15 1021.24 1021.31 1021.28 1021.23 1021.25 1021.27 1021.38 1021.08
1016.78 1017.52 1018.50 1019.46 1020.12 1020.87 1021.46 1021.69 1021.89 1022.20 1022.66 1022.86 1023.20 1023.62 1023.76 1023.73 1023.75 1023.68 1023.56 1023.44 1023.35 1023.20 1022.70 1021.99 1021.55 1021.37 1021.09 1020.71 1020.42 1020.00 1019.83 1019.82 1019.87 1020.05 1020.26 1020.52 1020.67 1020.72 1020.69 1020.58 1020.56 1020.69 1020.76 1020.55
1019.09 1019.64 1020.37 1020.74 1021.52 1022.01 1022.17 1022.44 1022.70 1022.93 1023.07 1023.26 1023.70 1023.84 1023.80 1023.71 1023.48 1023.35 1023.29 1023.28 1023.11 1022.67 1021.85 1021.38 1021.23 1020.98 1020.62 1020.24 1019.85 1019.36 1019.27 1019.14 1019.19 1019.35 1019.67 1019.91 1020.10 1020.12 1020.03 1019.95 1019.87 1019.89 1020.03 1020.20
1020.72 1021.03 1021.25 1021.62 1022.05 1022.36 1022.63 1022.75 1022.80 1022.89 1022.92 1023.19 1023.64 1023.70 1023.41 1023.12 1023.07 1023.05 1022.89 1022.99 1022.30 1021.82 1021.12 1020.87 1020.60 1020.30 1019.89 1019.53 1019.07 1018.82 1018.52 1018.44 1018.52 1018.70 1019.06 1019.26 1019.36 1019.38 1019.29 1019.20 1019.10 1019.04 1019.12 1019.33
1021.44 1021.70 1022.02 1022.27 1022.43 1022.64 1022.64 1022.70 1023.07 1023.19 1022.99 1023.10 1023.39 1023.16 1023.01 1022.70 1022.61 1022.48 1022.65 1022.27 1021.11 1020.79 1020.58 1020.29 1020.01 1019.51 1019.14 1018.72 1018.45 1018.13 1017.80 1017.78 1017.87 1018.10 1018.33 1018.41 1018.46 1018.43 1018.38 1018.31 1018.17 1018.03 1018.03 1018.26
1022.60 1022.44 1022.39 1022.42 1022.61 1022.82 1022.78 1022.81 1022.83 1022.83 1022.87 1022.84 1022.74 1022.63 1022.44 1022.07 1021.85 1021.78 1021.59 1021.33 1020.40 1020.30 1020.12 1019.87 1019.40 1018.94 1018.53 1018.10 1017.84 1017.43 1017.10 1017.08 1017.02 1017.10 1017.22 1017.27 1017.32 1017.29 1017.18 1017.10 1017.07 1016.90 1016.85 1016.99
1022.82 1022.84 1022.81 1022.75 1022.83 1022.83 1022.68 1022.51 1022.42 1022.61 1022.74 1022.46 1022.31 1022.11 1021.97 1021.43 1021.07 1021.23 1020.72 1020.08 1019.90 1019.75 1019.57 1019.31 1018.80 1018.31 1017.84 1017.51 1017.19 1016.88 1016.50 1016.21 1016.12 1016.09 1015.99 1015.83 1015.69 1015.61 1015.58 1015.58 1015.61 1015.69 1015.67 1015.72
1022.74 1022.82 1022.86 1022.77 1022.84 1022.96 1022.73 1022.24 1022.13 1021.99 1021.90 1021.74 1021.59 1021.43 1021.23 1020.77 1020.11 1019.96 1019.71 1019.47 1019.35 1019.23 1019.09 1018.75 1018.37 1017.94 1017.47 1017.01 1016.59 1016.26 1015.99 1015.65 1015.35 1015.11 1014.91 1014.73 1014.43 1014.24 1014.13 1014.07 1014.08 1014.22 1014.37 1014.62
1023.05 1022.95 1022.95 1023.09 1022.96 1022.74 1022.47 1022.03 1021.90 1021.67 1021.45 1021.24 1021.00 1020.65 1020.24 1019.87 1019.79 1019.23 1018.99 1018.86 1018.82 1018.71 1018.44 1018.13 1017.76 1017.51 1017.19 1016.76 1016.32 1015.79 1015.46 1015.09 1014.67 1014.33 1014.01 1013.69 1013.42 1013.17 1012.96 1012.79 1012.65 1012.68 1013.06 1013.36
1023.19 1023.30 1023.35 1023.22 1023.16 1022.93 1022.65 1022.32 1022.08 1021.70 1021.24 1020.87 1020.43 1020.10 1019.62 1019.20 1018.99 1018.68 1018.50 1018.43 1018.45 1018.22 1018.06 1017.84 1017.68 1017.54 1017.22 1016.80 1016.33 1015.77 1015.20 1014.52 1014.00 1013.51 1013.10 1012.73 1012.43 1012.13 1011.84 1011.63 1011.57 1011.67 1012.01 1012.46
1023.78 1023.79 1023.73 1023.54 1023.40 1023.23 1022.97 1022.70 1022.12 1021.35 1020.87 1020.62 1020.04 1019.59 1019.17 1018.69 1018.38 1018.27 1018.06 1018.00 1018.15 1018.18 1018.15 1018.06 1018.13 1018.09 1017.86 1017.51 1016.98 1016.40 1015.71 1014.83 1013.97 1013.04 1012.47 1011.93 1011.48 1011.11 1010.78 1010.64 1010.71 1011.01 1011.32 1011.81
Thickness
5602 5603 5610 5611 5609 5599 5595 5591 5578 5587 5582 5589 5579 5571 5563 5554 5543 5538 5533 5531 5525 5519 5512 5504 5495 5485 5478 5473 5466 5457 5447 5436 5423 5409 5395 5382 5369 5356 5338 5321 5308 5297 5288 5278
5596 5593 5591 5599 5599 5591 5590 5591 5584 5585 5579 5582 5574 5562 5554 5547 5539 5532 5529 5524 5517 5511 5501 5492 5481 5474 5468 5461 5452 5442 5432 5419 5405 5391 5377 5364 5352 5339 5324 5309 5295 5286 5279 5271
5572 5567 5578 5570 5591 5594 5599 5598 5591 5570 5579 5570 5561 5554 5543 5533 5528 5523 5518 5512 5506 5496 5487 5477 5469 5463 5455 5447 5438 5428 5416 5402 5388 5373 5359 5346 5335 5322 5307 5293 5282 5275 5269 5261
5540 5539 5546 5599 5603 5601 5595 5594 5586 5577 5571 5567 5557 5546 5535 5527 5520 5513 5507 5502 5493 5483 5474 5465 5458 5451 5442 5434 5424 5412 5398 5383 5369 5357 5345 5331 5318 5304 5292 5282 5273 5266 5260 5252
5524 5533 5566 5598 5598 5588 5584 5582 5577 5569 5560 5554 5539 5531 5526 5518 5512 5504 5497 5490 5480 5472 5463 5454 5446 5439 5430 5419 5408 5393 5379 5365 5355 5343 5330 5316 5304 5291 5280 5273 5265 5259 5252 5243
5511 5516 5527 5584 5594 5591 5585 5560 5571 5562 5548 5537 5524 5504 5512 5512 5505 5497 5489 5478 5469 5459 5450 5442 5434 5424 5412 5400 5387 5375 5363 5352 5340 5327 5315 5303 5290 5279 5271 5265 5258 5251 5243 5236
5465 5492 5539 5577 5585 5582 5556 5557 5563 5555 5545 5528 5520 5516 5514 5504 5494 5487 5474 5466 5456 5447 5438 5428 5419 5409 5398 5385 5373 5361 5349 5336 5324 5312 5300 5290 5279 5270 5261 5254 5248 5241 5235 5228
5502 5488 5542 5579 5572 5560 5568 5566 5559 5545 5538 5530 5522 5509 5501 5494 5483 5472 5462 5451 5444 5433 5424 5415 5405 5395 5383 5370 5359 5346 5333 5319 5307 5296 5286 5276 5266 5257 5250 5244 5239 5233 5221 5217
5542 5550 5573 5568 5574 5572 5565 5557 5545 5538 5529 5522 5509 5499 5490 5477 5468 5457 5445 5436 5428 5418 5409 5399 5390 5379 5367 5354 5343 5331 5317 5303 5292 5282 5273 5263 5254 5246 5240 5235 5229 5224 5220 5210
5549 5572 5564 5559 5564 5563 5551 5547 5538 5531 5521 5510 5498 5488 5474 5459 5450 5439 5430 5421 5411 5402 5392 5383 5373 5363 5351 5340 5329 5316 5301 5288 5278 5270 5261 5252 5246 5239 5233 5226 5220 5220 5213 5208
5534 5552 5553 5556 5552 5550 5541 5533 5528 5520 5512 5503 5490 5470 5460 5447 5436 5426 5416 5407 5397 5387 5377 5368 5359 5346 5335 5325 5314 5302 5291 5279 5267 5259 5251 5243 5237 5231 5228 5225 5220 5214 5210 5205
5542 5553 5551 5550 5547 5535 5526 5522 5517 5510 5495 5482 5472 5456 5447 5432 5423 5413 5403 5394 5383 5373 5364 5355 5343 5331 5321 5311 5299 5288 5279 5270 5259 5250 5242 5236 5229 5226 5223 5221 5218 5215 5211 5204
5549 5549 5543 5541 5530 5524 5518 5512 5505 5492 5481 5467 5449 5437 5429 5418 5408 5400 5389 5379 5370 5359 5349 5340 5329 5317 5307 5297 5287 5276 5268 5261 5253 5244 5237 5230 5223 5219 5217 5216 5214 5211 5209 5204
5547 5533 5529 5523 5519 5515 5508 5497 5486 5472 5460 5444 5434 5423 5413 5403 5393 5383 5375 5365 5354 5344 5334 5325 5315 5306 5296 5285 5276 5268 5260 5253 5246 5239 5233 5227 5220 5216 5211 5207 5199 5199 5203 5201
5530 5527 5525 5515 5509 5501 5491 5479 5464 5449 5436 5425 5417 5408 5399 5390 5380 5369 5360 5350 5340 5329 5319 5311 5303 5293 5284 5275 5267 5261 5254 5248 5241 5234 5227 5222 5217 5211 5209 5204 5200 5197 5194 5195
5515 5510 5504 5499 5488 5478 5467 5458 5442 5427 5416 5406 5401 5394 5386 5377 5366 5356 5347 5338 5327 5317 5308 5299 5288 5281 5273 5265 5259 5253 5247 5243 5236 5229 5222 5218 5215 5210 5208 5206 5199 5197 5190 5188
5496 5489 5481 5474 5465 5454 5440 5430 5422 5411 5403 5395 5389 5380 5371 5360 5349 5344 5334 5322 5308 5299 5294 5288 5280 5273 5265 5258 5251 5248 5243 5238 5232 5226 5221 5217 5212 5209 5208 5204 5203 5196 5191 5190
5483 5471 5458 5444 5432 5420 5415 5408 5402 5396 5387 5380 5365 5353 5346 5338 5336 5328 5317 5306 5296 5288 5281 5278 5272 5264 5257 5251 5245 5243 5238 5233 5229 5224 5221 5212 5208 5208 5205 5204 5202 5195 5192 5189
5445 5437 5428 5421 5411 5403 5397 5390 5382 5373 5362 5355 5347 5342 5332 5325 5322 5314 5303 5290 5284 5280 5277 5269 5262 5256 5251 5245 5240 5238 5234 5232 5227 5221 5216 5211 5205 5204 5202 5201 5202 5196 5193 5188
5420 5414 5408 5401 5393 5386 5377 5374 5363 5360 5355 5344 5330 5328 5325 5316 5304 5298 5289 5282 5275 5274 5270 5262 5256 5251 5246 5241 5239 5235 5233 5230 5224 5218 5211 5207 5203 5201 5198 5200 5199 5196 5192 5185
5398 5392 5387 5378 5374 5366 5361 5354 5346 5343 5340 5326 5318 5316 5311 5304 5290 5284 5279 5276 5275 5266 5260 5255 5250 5248 5244 5241 5237 5234 5233 5229 5223 5217 5211 5208 5204 5201 5199 5197 5199 5197 5191 5188
5375 5370 5362 5358 5354 5350 5345 5339 5336 5325 5319 5312 5305 5303 5298 5294 5285 5275 5269 5266 5268 5258 5252 5247 5244 5242 5240 5238 5235 5234 5233 5229 5225 5222 5217 5212 5208 5205 5202 5199 5195 5195 5193 5189
5356 5353 5349 5342 5336 5337 5329 5324 5316 5308 5303 5299 5294 5289 5283 5282 5278 5268 5271 5264 5256 5250 5245 5240 5238 5237 5236 5235 5232 5231 5230 5229 5226 5221 5218 5216 5213 5210 5206 5202 5198 5195 5193 5190
5345 5339 5334 5328 5319 5315 5314 5315 5309 5302 5294 5289 5283 5277 5271 5271 5274 5261 5258 5254 5247 5241 5236 5232 5230 5230 5230 5230 5229 5227 5225 5224 5222 5220 5217 5214 5213 5210 5208 5204 5201 5196 5193 5188
5325 5321 5317 5308 5309 5305 5304 5300 5294 5288 5284 5280 5274 5270 5264 5262 5256 5254 5249 5244 5237 5234 5229 5225 5224 5223 5222 5221 5221 5221 5220 5218 5217 5215 5213 5212 5210 5208 5205 5203 5201 5198 5192 5188
5314 5305 5299 5296 5290 5286 5282 5278 5275 5272 5272 5269 5265 5257 5255 5250 5247 5244 5240 5233 5228 5225 5219 5217 5214 5212 5211 5210 5211 5212 5212 5213 5213 5212 5210 5208 5206 5204 5203 5201 5198 5194 5189 5184
5293 5285 5283 5279 5274 5269 5264 5259 5259 5262 5259 5250 5251 5249 5243 5240 5237 5233 5229 5224 5216 5211 5207 5203 5199 5195 5194 5193 5193 5194 5196 5200 5202 5205 5205 5204 5202 5201 5199 5197 5193 5188 5182 5177